Regional Weather Roundup
Issued by NWS Sioux Falls, SD

Home | Current Version | Previous Version | Graphics & Text | Print | Product List | Glossary On
Versions: 1 2 3 4 5 6 7 8 9 10 11 12 13 14 15 16 17 18 19 20 21 22 23 24 25 26 27 28 29 30 31 32 33 34 35 36 37 38 39 40 41 42 43 44 45 46 47 48 49 50
000
ASUS43 KFSD 301702
RWRFSD

WEATHER ROUNDUP FOR SE SOUTH DAKOTA/SW MINNESOTA/NW IOWA
NATIONAL WEATHER SERVICE SIOUX FALLS SD
1200 PM CDT THU JUL 30 2015

NOTE: "FAIR" INDICATES FEW OR NO CLOUDS BELOW 12,000 FEET WITH NO
SIGNIFICANT WEATHER AND OR OBSTRUCTIONS TO VISIBILITY.


SDZ038>040-050-052>070-301800-
SOUTHEAST SOUTH DAKOTA

CITY           SKY/WX    TMP DP  RH WIND       PRES   REMARKS
BROOKINGS      SUNNY     81  55  41 NW9       30.17R
CHAMBERLAIN    NOT AVBL
HURON          SUNNY     81  58  45 CALM      30.14S
MADISON        FAIR      79  57  47 N5        30.17R
MITCHELL       SUNNY     83  54  36 CALM      30.16R
SIOUX FALLS    SUNNY     81  63  54 VRB5      30.15S
WINNER         FAIR      86  53  32 VRB6      30.18S
YANKTON        SUNNY     82  61  47 W13       30.16S
$$

MNZ071-072-080-081-089-090-097-098-301800-
SOUTHWEST MINNESOTA

CITY           SKY/WX    TMP DP  RH WIND       PRES   REMARKS
FAIRMONT       SUNNY     81  55  41 NW12      30.13R
JACKSON        SUNNY     81  59  47 NW9G18    30.16R
LUVERNE        SUNNY     81  61  50 NW3       30.16S
MARSHALL       SUNNY     81  52  36 NW7       30.15R
MONTEVIDEO     SUNNY     82  63  51 N7        30.13R
PIPESTONE      SUNNY     79  57  47 NW7       30.17R
REDWOOD FALLS  SUNNY     83  55  38 NW13      30.11R
TRACY          SUNNY     81  59  47 NW9       30.15R
WINDOM         SUNNY     81  59  47 NW10      30.15R
WORTHINGTON    SUNNY     79  61  53 W8        30.16R
$$

IAZ001>003-012>014-020>022-031-032-NEZ013-014-SDZ071-301800-
NORTHWEST IOWA

CITY           SKY/WX    TMP DP  RH WIND       PRES   REMARKS
DENISON        SUNNY     79  64  61 W10       30.19S HAZE
ESTHERVILLE    SUNNY     80  65  59 SW6       30.15R
SIOUX CITY     SUNNY     82  64  54 W12       30.18S
SPENCER        SUNNY     82  61  48 W10       30.15S
$$

ABBREVIATIONS USED IN REMARKS
   TC - TEMPERATURE IN CELSIUS
  WCI - WIND CHILL INDEX
   HX - HEAT INDEX
  VSB - VISIBILITY




USA.gov is the U.S. government's official web portal to all federal, state and local government web resources and services.